User: anonymous   Login
Location: El Hornillo
(40.2499°N, 5.1036°W)
Time: 11:24:35
(UTC+00:00)
Language:

Cosmos 1606 Rocket - Orbit

View from above orbital plane
View from above orbital plane
View from above satellite
View from above satellite

Ground track
Ground track

The orbit data is extracted from the following two-line orbital elements,

1 15370U 84111B   24276.84078665  .00002662  00000-0  30759-3 0  9999
2 15370  82.5188  28.2660 0018991 262.3930  97.5129 14.85138344138249
Epoch (UTC): 02 October 2024 20:10:43
Eccentricity: 0.0018991
inclination: 82.5188°
perigee height: 600 km
apogee height: 626 km
right ascension of ascending node: 28.2660°
argument of perigee: 262.3930°
revolutions per day: 14.85138344
mean anomaly at epoch: 97.5129°
orbit number at epoch: 13824

The dashed part of the orbit path shows where the satellite is in the earth's shadow,  

DLR